Hourly Weather Kozki

Today, 25 October, Sunday

Time Temperature Precipitation Wind Pressure Humidity
00:00 +10°C° 0 mm 3 mps 751 mmHg 93%
01:00 +10°C° 0 mm 2 mps 751 mmHg 94%
02:00 +10°C° 0 mm 2 mps 751 mmHg 95%
03:00 +9°C° 0 mm 2 mps 751 mmHg 95%
04:00 +9°C° 0 mm 2 mps 751 mmHg 95%
05:00 +9°C° 0 mm 2 mps 751 mmHg 95%
06:00 +9°C° 0 mm 2 mps 751 mmHg 95%
07:00 +9°C° 0 mm 2 mps 751 mmHg 95%
08:00 +9°C° 0 mm 2 mps 751 mmHg 95%
09:00 +10°C° 0 mm 2 mps 751 mmHg 89%
10:00 +13°C° 0 mm 2 mps 751 mmHg 83%
11:00 +14°C° 0 mm 2 mps 752 mmHg 78%
12:00 +15°C° 0 mm 2 mps 751 mmHg 74%
13:00 +16°C° 0 mm 2 mps 751 mmHg 70%
14:00 +17°C° 0 mm 2 mps 751 mmHg 66%
15:00 +16°C° 0 mm 2 mps 751 mmHg 71%
16:00 +15°C° 0 mm 2 mps 750 mmHg 76%
17:00 +14°C° 0 mm 2 mps 750 mmHg 81%
18:00 +12°C° 0 mm 3 mps 750 mmHg 83%
19:00 +12°C° 0 mm 3 mps 750 mmHg 85%
20:00 +11°C° 0 mm 3 mps 751 mmHg 87%
21:00 +11°C° 0 mm 4 mps 750 mmHg 85%
22:00 +11°C° 0 mm 4 mps 750 mmHg 84%
23:00 +11°C° 0 mm 4 mps 750 mmHg 82%

Tomorrow, 26 October, Monday

Time Temperature Precipitation Wind Pressure Humidity
00:00 +10°C° 0 mm 4 mps 750 mmHg 83%
01:00 +10°C° 0 mm 4 mps 749 mmHg 84%
02:00 +10°C° 0 mm 4 mps 749 mmHg 85%
03:00 +10°C° 0 mm 4 mps 749 mmHg 86%
04:00 +10°C° 0 mm 4 mps 749 mmHg 88%
05:00 +11°C° 0 mm 4 mps 748 mmHg 90%
06:00 +11°C° 0 mm 4 mps 748 mmHg 91%
07:00 +10°C° 0 mm 5 mps 748 mmHg 92%
08:00 +10°C° 0 mm 5 mps 748 mmHg 93%
09:00 +12°C° 0 mm 5 mps 748 mmHg 89%
10:00 +13°C° 0 mm 5 mps 748 mmHg 84%
11:00 +14°C° 0 mm 6 mps 747 mmHg 80%
12:00 +15°C° 0 mm 6 mps 747 mmHg 76%
13:00 +16°C° 0 mm 6 mps 747 mmHg 72%
14:00 +17°C° 0 mm 6 mps 747 mmHg 67%
15:00 +16°C° 0 mm 5 mps 747 mmHg 70%
16:00 +15°C° 0 mm 4 mps 747 mmHg 73%
17:00 +15°C° 0 mm 4 mps 746 mmHg 76%
18:00 +14°C° 0 mm 4 mps 747 mmHg 78%
19:00 +14°C° 0 mm 5 mps 747 mmHg 80%
20:00 +14°C° 0 mm 5 mps 747 mmHg 82%
21:00 +13°C° 0 mm 5 mps 747 mmHg 83%
22:00 +13°C° 0 mm 5 mps 747 mmHg 84%
23:00 +13°C° 0 mm 5 mps 747 mmHg 86%

Day after tomorrow, 27 October, Tuesday

Time Temperature Precipitation Wind Pressure Humidity
00:00 +13°C° 0 mm 5 mps 747 mmHg 85%
01:00 +13°C° 0 mm 5 mps 747 mmHg 84%
02:00 +13°C° 0 mm 4 mps 747 mmHg 83%
03:00 +13°C° 0 mm 4 mps 747 mmHg 82%
04:00 +13°C° 0 mm 5 mps 747 mmHg 82%
05:00 +13°C° 0 mm 5 mps 747 mmHg 81%
06:00 +13°C° 0 mm 5 mps 747 mmHg 82%
07:00 +13°C° 0 mm 5 mps 747 mmHg 82%
08:00 +13°C° 0 mm 4 mps 747 mmHg 82%
09:00 +14°C° 0 mm 5 mps 748 mmHg 79%
10:00 +15°C° 0 mm 5 mps 748 mmHg 76%
11:00 +15°C° 0 mm 5 mps 748 mmHg 73%
12:00 +16°C° 0 mm 5 mps 748 mmHg 70%
13:00 +17°C° 0 mm 5 mps 748 mmHg 68%
14:00 +19°C° 0 mm 5 mps 748 mmHg 65%
15:00 +18°C° 0 mm 4 mps 748 mmHg 67%
16:00 +17°C° 0 mm 4 mps 748 mmHg 70%
17:00 +15°C° 0 mm 4 mps 748 mmHg 73%
18:00 +15°C° 0 mm 4 mps 748 mmHg 75%
19:00 +14°C° 0 mm 4 mps 748 mmHg 77%
20:00 +14°C° 0 mm 4 mps 748 mmHg 79%
21:00 +13°C° 0 mm 4 mps 748 mmHg 82%
22:00 +13°C° 0 mm 4 mps 748 mmHg 85%
23:00 +13°C° 0 mm 4 mps 748 mmHg 88%

28 October, Wednesday

Time Temperature Precipitation Wind Pressure Humidity
00:00 +12°C° 0 mm 4 mps 748 mmHg 90%
01:00 +12°C° 0 mm 3 mps 748 mmHg 92%
02:00 +12°C° 0 mm 3 mps 748 mmHg 93%
03:00 +11°C° 0 mm 3 mps 749 mmHg 93%
04:00 +12°C° 0 mm 2 mps 749 mmHg 94%
05:00 +12°C° 0 mm 2 mps 749 mmHg 94%
06:00 +10°C° 0 mm 2 mps 749 mmHg 94%
07:00 +11°C° 0 mm 1 mps 750 mmHg 94%
08:00 +11°C° 0 mm 1 mps 750 mmHg 94%
09:00 +12°C° 0 mm 1 mps 750 mmHg 89%
10:00 +14°C° 0 mm 1 mps 750 mmHg 84%
11:00 +15°C° 0 mm 1 mps 750 mmHg 79%
12:00 +15°C° 0 mm 1 mps 750 mmHg 75%
13:00 +16°C° 0 mm 2 mps 750 mmHg 71%
14:00 +17°C° 0 mm 2 mps 750 mmHg 67%
15:00 +16°C° 0 mm 1 mps 750 mmHg 71%
16:00 +15°C° 0 mm 1 mps 750 mmHg 74%
17:00 +15°C° 0 mm 1 mps 750 mmHg 77%
18:00 +14°C° 0 mm 1 mps 750 mmHg 79%
19:00 +14°C° 0 mm 1 mps 750 mmHg 82%
20:00 +13°C° 0 mm 1 mps 750 mmHg 84%
21:00 +13°C° 0 mm 1 mps 750 mmHg 85%
22:00 +13°C° 0 mm 2 mps 750 mmHg 86%
23:00 +12°C° 0 mm 2 mps 750 mmHg 88%

29 October, Thursday

Time Temperature Precipitation Wind Pressure Humidity
00:00 +12°C° 0 mm 2 mps 750 mmHg 89%
01:00 +12°C° 0 mm 2 mps 750 mmHg 90%
02:00 +12°C° 0 mm 2 mps 750 mmHg 91%
03:00 +12°C° 0 mm 2 mps 750 mmHg 91%
04:00 +12°C° 0 mm 2 mps 750 mmHg 90%
05:00 +12°C° 0 mm 2 mps 750 mmHg 90%
06:00 +12°C° 0 mm 2 mps 750 mmHg 90%
07:00 +10°C° 0 mm 2 mps 750 mmHg 91%
08:00 +10°C° 0 mm 2 mps 751 mmHg 91%
09:00 +12°C° 0 mm 2 mps 751 mmHg 83%
10:00 +13°C° 0 mm 2 mps 751 mmHg 76%
11:00 +13°C° 0 mm 3 mps 751 mmHg 69%
12:00 +14°C° 0 mm 3 mps 751 mmHg 64%
13:00 +15°C° 0 mm 4 mps 751 mmHg 60%
14:00 +15°C° 0 mm 4 mps 751 mmHg 56%
15:00 +16°C° 0 mm 3 mps 751 mmHg 60%
16:00 +14°C° 0 mm 3 mps 751 mmHg 64%
17:00 +13°C° 0 mm 3 mps 751 mmHg 68%
18:00 +13°C° 0 mm 3 mps 752 mmHg 70%
19:00 +12°C° 0 mm 3 mps 752 mmHg 71%
20:00 +12°C° 0 mm 3 mps 752 mmHg 73%
21:00 +12°C° 0.1 mm 3 mps 753 mmHg 77%
22:00 +11°C° 0.1 mm 3 mps 753 mmHg 80%
23:00 +10°C° 0.1 mm 2 mps 753 mmHg 84%

30 October, Friday

Time Temperature Precipitation Wind Pressure Humidity
00:00 +10°C° 0 mm 2 mps 753 mmHg 85%
01:00 +9°C° 0 mm 2 mps 753 mmHg 86%
02:00 +9°C° 0 mm 2 mps 754 mmHg 87%
03:00 +8°C° 0 mm 3 mps 754 mmHg 88%
04:00 +8°C° 0 mm 3 mps 754 mmHg 89%
05:00 +8°C° 0 mm 3 mps 754 mmHg 90%
06:00 +8°C° 0 mm 3 mps 754 mmHg 89%
07:00 +8°C° 0 mm 3 mps 754 mmHg 88%
08:00 +8°C° 0 mm 3 mps 754 mmHg 86%
09:00 +8°C° 0 mm 4 mps 754 mmHg 81%
10:00 +11°C° 0 mm 4 mps 754 mmHg 77%
11:00 +12°C° 0 mm 5 mps 754 mmHg 72%
12:00 +12°C° 0 mm 5 mps 754 mmHg 71%
13:00 +12°C° 0 mm 5 mps 754 mmHg 71%
14:00 +12°C° 0 mm 5 mps 754 mmHg 71%
15:00 +12°C° 0 mm 4 mps 754 mmHg 73%
16:00 +11°C° 0 mm 4 mps 754 mmHg 76%
17:00 +11°C° 0 mm 3 mps 754 mmHg 79%
18:00 +11°C° 0 mm 3 mps 754 mmHg 80%
19:00 +11°C° 0 mm 3 mps 754 mmHg 82%
20:00 +10°C° 0 mm 3 mps 754 mmHg 84%
21:00 +10°C° 0 mm 3 mps 754 mmHg 84%
22:00 +10°C° 0 mm 4 mps 754 mmHg 85%
23:00 +10°C° 0 mm 4 mps 754 mmHg 85%
Show more